Alliance, NE

5:16 AM MDT on April 26, 2017 (GMT -0600)
Alliance Municipal

Weather History for KAIA - June, 2014

Change the Weather History Date:

Tuesday, June 24, 2014

  Actual Average Record
Temperature  
Mean Temperature 65 °F 68 °F  
Max Temperature 78 °F 83 °F 101 °F (2001)
Min Temperature 51 °F 52 °F 38 °F (1929)
Degree Days  
Heating Degree Days 0 2  
Month to date heating degree days 99 87  
Since 1 June heating degree days 99 87  
Since 1 July heating degree days 7518 7302  
Cooling Degree Days 0 4  
Month to date cooling degree days 18 58  
Year to date cooling degree days 32 68  
Since 1 June cooling degree days 18 58  
Growing Degree Days 15 (Base 50)    
Moisture  
Dew Point 53 °F    
Average Humidity 69    
Maximum Humidity 96    
Minimum Humidity 42    
Precipitation  
Precipitation 0.00 in 0.09 in 1.08 in (1969)
Month to date precipitation 4.13 2.38  
Year to date precipitation 11.63 7.89  
Sea Level Pressure  
Sea Level Pressure 30.01 in    
Wind  
Wind Speed 7 mph (East)    
Max Wind Speed 21 mph    
Max Gust Speed 25 mph    
Visibility 10 miles    
Events      
T = Trace of Precipitation, MM = Missing Value Source: NWS Daily Summary

Daily Weather History Graph

Daily Weather History Graph

Search for Another Location

Airport or City:

Trip Planner

Search our weather history database for the weather conditions in past years. The results will help you decide how hot, cold, wet, or windy it might be!

Date:

Astronomy

Jun. 24, 2014 Rise Set
Actual Time 5:16 AM MDT 8:30 PM MDT
Civil Twilight 4:41 AM MDT 9:05 PM MDT
Nautical Twilight 3:57 AM MDT 9:49 PM MDT
Astronomical Twilight 3:03 AM MDT 10:43 PM MDT
Moon 3:26 AM MDT (6/24) 6:09 PM MDT (6/24)
Length of Visible Light 16h 23m
Length of Day
15h 14m
Waning Crescent, 6% of the Moon is Illuminated
Jun 24
Waning Crescent
Jun 27
New
Jul 5
First Quarter
Jul 12
Full
Jul 18
Last Quarter

Hourly Weather History & Observations

Time (MDT) Temp. Dew Point Humidity Pressure Visibility Wind Dir Wind Speed Gust Speed Precip Events Conditions
12:53 AM 57.9 °F 53.1 °F 84% 30.00 in 10.0 mi East 4.6 mph - N/A   Scattered Clouds
1:53 AM 55.9 °F 53.1 °F 90% 30.00 in 10.0 mi NE 4.6 mph - N/A   Clear
2:53 AM 54.0 °F 51.1 °F 90% 30.00 in 10.0 mi SE 4.6 mph - N/A   Clear
3:53 AM 54.0 °F 51.1 °F 90% 29.98 in 10.0 mi SE 5.8 mph - N/A   Clear
4:53 AM 52.0 °F 50.0 °F 93% 30.01 in 10.0 mi Calm Calm - N/A   Clear
5:53 AM 54.0 °F 52.0 °F 93% 30.01 in 10.0 mi North 10.4 mph - N/A   Clear
6:53 AM 57.9 °F 54.0 °F 87% 30.05 in 10.0 mi WNW 11.5 mph 17.3 mph N/A   Partly Cloudy
7:11 AM 57.0 °F 52.0 °F 83% 30.15 in 10.0 mi NNW 8.1 mph - N/A   Mostly Cloudy
7:34 AM 59.0 °F 52.0 °F 78% 30.13 in 10.0 mi North 16.1 mph - N/A   Overcast
7:53 AM 59.0 °F 51.8 °F 77% 30.13 in 10.0 mi NNE 15.0 mph 25.3 mph N/A   Mostly Cloudy
8:53 AM 64.0 °F 53.1 °F 67% 30.03 in 10.0 mi NE 8.1 mph - N/A   Clear
9:53 AM 68.0 °F 54.0 °F 61% 30.03 in 10.0 mi SSE 6.9 mph - N/A   Partly Cloudy
10:53 AM 70.0 °F 53.1 °F 55% 30.03 in 10.0 mi ENE 6.9 mph - N/A   Partly Cloudy
11:53 AM 72.0 °F 53.1 °F 51% 30.02 in 10.0 mi South 3.5 mph - N/A   Mostly Cloudy
12:53 PM 73.9 °F 53.1 °F 48% 30.00 in 10.0 mi ENE 5.8 mph - N/A   Mostly Cloudy
1:53 PM 73.9 °F 52.0 °F 46% 30.00 in 10.0 mi Variable 3.5 mph - N/A   Partly Cloudy
2:53 PM 73.9 °F 51.1 °F 45% 29.98 in 10.0 mi Variable 3.5 mph - N/A   Partly Cloudy
3:53 PM 75.0 °F 52.0 °F 44% 29.96 in 10.0 mi ESE 5.8 mph - N/A   Mostly Cloudy
4:53 PM 78.1 °F 53.1 °F 42% 29.95 in 10.0 mi NE 4.6 mph - N/A   Clear
5:53 PM 73.0 °F 53.1 °F 49% 29.96 in 10.0 mi ENE 11.5 mph - N/A   Clear
6:53 PM 73.9 °F 53.1 °F 48% 29.95 in 10.0 mi ENE 9.2 mph - N/A   Clear
7:53 PM 69.1 °F 55.9 °F 63% 29.96 in 10.0 mi East 6.9 mph - N/A   Clear
8:53 PM 66.0 °F 55.0 °F 68% 29.96 in 10.0 mi ESE 8.1 mph - N/A   Mostly Cloudy
9:53 PM 64.9 °F 55.9 °F 73% 29.98 in 10.0 mi SSE 9.2 mph - N/A   Scattered Clouds
10:53 PM 59.0 °F 55.0 °F 87% 30.01 in 10.0 mi South 6.9 mph - N/A   Mostly Cloudy
11:53 PM 62.1 °F 57.9 °F 86% 29.98 in 10.0 mi SSE 6.9 mph - N/A   Clear